OBJECT C, 59812

Orbit data source: Space-Track

You're viewing an Uncataloged Satellite

Recently launched and/or uncataloged satellites may have evolving metadata. Metadata may include but not limited to: Owner, Maufacturer, Bus, Motor, and Mission.

OBJECT C, 59812 is a Chinese satellite in SSO that was launched on Tue, 21 May 2024 UTC via a KUAIZHOU-11 launch vehicle from the Jiuquan Satellite Launch Center, China (JSC). Unknown objects in Earth's orbit typically refer to objects detected orbiting the Earth but have not yet been identified or cataloged. These objects could be anything from previously untracked satellites, spent rocket stages, debris from satellite collisions, or even natural meteoroids temporarily captured by Earth's gravity.

Not visible in the next 10 days
Identifier
59812, 2024-095C
Orbit
SSO
Country
Flag of CNCN / PRC
Related business
None
Manufacturer
Unknown
Mission
Operational Commercial Imaging
Bus & Motor
Unknown
Mass
Unknown
Launch date (UTC)
2024-05-21 (2 years ago)
Launch vehicle
KUAIZHOU-11
Launch site
Jiuquan Satellite Launch Center, China (JSC)
Object type
Unknown
Shape & HBR
Box + 2 Pan, 0.5 m
Radar Cross Section
0.195 m², Medium (>0.1 m² and < 1m²)

Expand to show TLE details & history
Last TLE update: 15 hours ago

TLE from 15 hours ago
0 OBJECT C
1 59812U 24095C   26128.01319336  .00337510  43367-4  12269-2 0  9998
2 59812  97.5423 232.5706 0007556 236.2700 123.7852 15.88437936109906
Epoch: 2026-05-08T00:18Z
TLE epoch observation values (Epoch: 2026-05-08T00:18:59.906Z)
Latitude
-0.00001°
Longitude
1.96991°
Altitude
312.652 km
Speed
7.719 km/s
True Right ascension
15h 30m 16s
True Declination
0° 00' 00"
Sunlit
Object was in full shadow at epoch
Visualization orbit readout
Latitude
Unknown
Longitude
Unknown
Altitude
Unknown
Speed
Unknown
Apparent Right ascension
Unknown
Apparent Declination
Unknown
Sunlit
N/A
Visualization observer readout
Local Sidereal Time
23:50:55
Azimuth
Unknown
Elevation
Unknown
Doppler factor
Unknown
Orbital elements
Apogee altitude
308.592 km
Perigee altitude
298.494 km
Semi-major axis
6,681.68 km
Eccentricity
0.00076
Inclination
97.5423°
RAAN
232.5706°
Arg. of periapsis
236.27°
True anomaly
123.85713°
Mean anomaly
123.7852°
Eccentric anomaly
123.82117°
Mean motion
3.97388 °/min
Orbital period
90.59 mins
BSTAR
0.0012269
Loading maneuver chart data...
Computing Atmospheric mass density...
Loading historical data...
Loading historical data...
Loading historical data...
Loading historical data...
Loading historical data...
Loading historical data...
Loading historical data...
Other satellites on launch #95 in the year 2024 (2024-05-21 UTC)

Documentation

Showing up to 5 results
|